This is the latest recevied weather packets stored in our database for station/object KE5VT. If no packets are shown the sender has not sent any weather packets the latest 10 day(s).
| Time | Temp. | Humidity | Pressure | Rain* | Wind** | Luminosity | Snow |
|---|---|---|---|---|---|---|---|
| 1788044528 | 28.33° C | 74% | 1016.5 hPa | 0 mm | - | 41 W/m² | - |
| 1788044227 | 28.33° C | 73% | 1016.4 hPa | 0 mm | - | 44 W/m² | - |
| 1788043923 | 28.33° C | 73% | 1016.2 hPa | 0 mm | - | 47 W/m² | - |
| 1788043618 | 28.33° C | 72% | 1016.3 hPa | 0 mm | - | 59 W/m² | - |
| 1788043313 | 28.89° C | 73% | 1016.2 hPa | 0 mm | - | 81 W/m² | - |
| 1788043008 | 28.89° C | 72% | 1016.2 hPa | 0 mm | - | 93 W/m² | - |
| 1788042703 | 28.89° C | 71% | 1016.3 hPa | 0 mm | - | 121 W/m² | - |
| 1788042402 | 28.89° C | 72% | 1016.6 hPa | 0 mm | - | 118 W/m² | - |
| 1788042097 | 28.89° C | 72% | 1016.3 hPa | 0 mm | - | 111 W/m² | - |
| 1788041792 | 29.44° C | 71% | 1016.4 hPa | 0 mm | - | 150 W/m² | - |
| 1788041487 | 28.89° C | 71% | 1016.5 hPa | 0 mm | - | 173 W/m² | - |
| 1788041182 | 28.89° C | 72% | 1016.4 hPa | 0 mm | - | 208 W/m² | - |
| 1788040881 | 29.44° C | 71% | 1016.6 hPa | 0 mm | - | 100 W/m² | - |
| 1788040580 | 28.89° C | 72% | 1016.3 hPa | 0 mm | - | 141 W/m² | - |
| 1788040276 | 28.89° C | 73% | 1016.5 hPa | 0 mm | - | 129 W/m² | - |
| 1788039975 | 28.89° C | 74% | 1016.4 hPa | 0 mm | - | 143 W/m² | - |
| 1788039670 | 28.89° C | 73% | 1016.3 hPa | 0 mm | - | 126 W/m² | - |
| 1788039365 | 28.89° C | 74% | 1016.4 hPa | 0 mm | - | 116 W/m² | - |
| 1788039061 | 28.89° C | 72% | 1016.4 hPa | 0 mm | - | 123 W/m² | - |
| 1788038756 | 28.89° C | 74% | 1016.5 hPa | 0 mm | - | 176 W/m² | - |
| 1788038456 | 28.33° C | 73% | 1016.5 hPa | 0 mm | - | 87 W/m² | - |
| 1788038156 | 28.89° C | 74% | 1016.3 hPa | 0 mm | - | 67 W/m² | - |
| 1788037855 | 29.44° C | 70% | 1016.4 hPa | 0 mm | - | 58 W/m² | - |
| 1788037550 | 30° C | 67% | 1016.3 hPa | 0 mm | - | 92 W/m² | - |
| 1788037246 | 30° C | 67% | 1016.4 hPa | 0 mm | - | 111 W/m² | - |
* Rain latest hour (hover to see other rain measurements)
** Current wind speed in m/s (hover to see current wind gust speed)